VR2HK-13 Weather Reports


time (UTC)temp
C
wind
direction
speed
KPH
gust
KPH
rain 1hr
cm
rain 24hr
cm
rain mn
cm
humidity
%
barometer
mb
20260505093456 21 248 1.6 12.9 0.00 0.03 0.00 87 1012.7
20260505092956 21 247 4.8 8.0 0.00 0.03 0.00 87 1012.5
20260505092628 21 43 1.6 4.8 0.00 0.03 0.00 87 1012.6
20260505092457 21 19 0.0 4.8 0.00 0.03 0.00 87 1012.6
20260505092118 21 48 0.0 4.8 0.00 0.03 0.00 87 1012.6
20260505091607 21 193 1.6 4.8 0.00 0.03 0.00 87 1012.5
20260505091456 20 192 3.2 4.8 0.00 0.03 0.00 87 1012.5
20260505091058 20 200 0.0 8.0 0.00 0.03 0.00 86 1012.5
20260505090956 20 189 1.6 8.0 0.00 0.03 0.00 86 1012.6
20260505090547 21 48 6.4 12.9 0.00 0.03 0.00 86 1012.6
20260505090456 21 71 4.8 12.9 0.00 0.03 0.00 86 1012.6
20260505090037 21 49 3.2 9.7 0.00 0.03 0.00 86 1012.6
20260505085956 21 61 6.4 9.7 0.00 0.03 0.00 86 1012.6
20260505085528 21 14 3.2 8.0 0.00 0.03 0.00 86 1012.6
20260505085456 21 48 3.2 6.4 0.00 0.03 0.00 86 1012.6
20260505085017 21 260 1.6 4.8 0.00 0.03 0.00 86 1012.5
20260505084956 21 283 1.6 4.8 0.00 0.03 0.00 86 1012.6
20260505084507 20 80 4.8 16.1 0.00 0.03 0.00 86 1012.7
20260505084456 20 83 6.4 16.1 0.00 0.03 0.00 86 1012.7
20260505083956 20 348 0.0 22.5 0.00 0.03 0.00 86 1012.7
20260505083456 21 25 4.8 17.7 0.00 0.03 0.00 86 1012.8
20260505083447 21 43 3.2 9.7 0.00 0.03 0.00 86 1012.8
20260505082956 21 299 1.6 8.0 0.00 0.05 0.00 86 1012.7
20260505082937 21 152 3.2 8.0 0.00 0.05 0.00 86 1012.7
20260505082456 21 27 1.6 11.3 0.00 0.13 0.00 85 1012.7
20260505082428 21 47 3.2 11.3 0.00 0.13 0.00 85 1012.7
20260505081955 21 3 1.6 9.7 0.00 0.18 0.00 86 1012.6
20260505081917 21 22 4.8 9.7 0.00 0.18 0.00 86 1012.6
20260505081456 21 262 1.6 8.0 0.00 0.18 0.00 85 1012.6
20260505081407 21 199 4.8 8.0 0.00 0.18 0.00 85 1012.6
20260505080956 21 329 0.0 9.7 0.00 0.18 0.00 86 1012.6
20260505080456 21 88 12.9 24.1 0.00 0.23 0.00 85 1012.6
20260505080347 21 3 4.8 9.7 0.00 0.25 0.00 85 1012.6
20260505075956 21 25 4.8 35.4 0.00 0.28 0.00 85 1012.7
20260505075837 21 18 8.0 35.4 0.00 0.28 0.00 85 1012.7
20260505075455 21 275 8.0 20.9 0.00 0.28 0.00 85 1012.7
20260505074955 21 42 1.6 22.5 0.00 0.28 0.00 86 1012.7
20260505074817 21 279 6.4 22.5 0.00 0.28 0.00 85 1012.7
20260505074456 21 286 4.8 19.3 0.00 0.28 0.00 86 1012.8
20260505074307 21 161 0.0 27.4 0.00 0.28 0.00 86 1012.9
20260505073955 21 59 14.5 27.4 0.00 0.30 0.00 85 1013.0
20260505073757 21 63 3.2 11.3 0.00 0.30 0.00 86 1013.0
20260505073455 21 250 3.2 8.0 0.00 0.30 0.00 86 1012.9
20260505073247 21 280 1.6 8.0 0.00 0.30 0.00 86 1013.0
20260505072956 21 219 0.0 12.9 0.00 0.30 0.00 86 1012.9
20260505072736 21 91 4.8 12.9 0.00 0.30 0.00 86 1013.0
20260505072455 21 259 4.8 12.9 0.00 0.38 0.00 86 1013.0
20260505072227 21 170 0.0 12.9 0.00 0.38 0.00 87 1013.0
20260505071956 21 311 0.0 17.7 0.00 0.41 0.00 87 1013.0
20260505071716 21 225 11.3 17.7 0.00 0.46 0.00 86 1012.9
20260505071455 21 272 3.2 17.7 0.00 0.46 0.00 87 1013.0
20260505071206 21 183 8.0 19.3 0.00 0.51 0.00 86 1013.1
20260505070955 21 280 3.2 19.3 0.00 0.53 0.00 87 1013.0
20260505070657 21 256 4.8 17.7 0.00 0.53 0.00 87 1013.0
20260505070455 21 228 4.8 17.7 0.03 0.53 0.00 87 1013.0
20260505070146 21 239 6.4 14.5 0.03 0.56 0.00 87 1013.0
20260505065955 21 158 6.4 14.5 0.03 0.61 0.00 87 1013.1
20260505065636 21 298 4.8 14.5 0.03 0.61 0.00 88 1013.1
20260505065455 21 11 4.8 12.9 0.03 0.61 0.00 88 1013.2
20260505065126 20 220 3.2 16.1 0.03 0.61 0.00 87 1013.3
20260505064955 21 212 3.2 16.1 0.03 0.61 0.00 87 1013.4
20260505064616 21 82 1.6 12.9 0.03 0.64 0.00 88 1013.4
20260505064455 21 324 4.8 12.9 0.03 0.69 0.00 88 1013.5
20260505064107 21 274 1.6 14.5 0.03 0.69 0.00 88 1013.5
20260505063955 21 323 0.0 17.7 0.03 0.69 0.00 88 1013.5
20260505063556 20 263 3.2 29.0 0.03 0.69 0.00 88 1013.4
20260505063455 20 241 4.8 29.0 0.03 0.69 0.00 88 1013.5
20260505063046 20 291 6.4 17.7 0.03 0.69 0.00 88 1013.6
20260505062955 20 193 8.0 17.7 0.03 0.69 0.00 88 1013.6
20260505062536 21 26 0.0 8.0 0.03 0.74 0.00 88 1013.6
20260505062454 21 52 0.0 8.0 0.03 0.76 0.00 88 1013.6
20260505062026 20 23 3.2 11.3 0.03 0.79 0.00 88 1013.7
20260505061955 20 39 6.4 11.3 0.03 0.79 0.00 88 1013.7
20260505061517 20 224 8.0 17.7 0.03 0.84 0.00 88 1013.6
20260505061455 20 223 8.0 17.7 0.03 0.84 0.00 88 1013.6
20260505061006 20 204 9.7 17.7 0.03 0.84 0.00 88 1013.7
20260505060955 20 242 8.0 17.7 0.03 0.84 0.00 88 1013.6
20260505060457 20 222 8.0 22.5 0.00 0.86 0.00 88 1013.7
20260505060455 20 219 8.0 22.5 0.00 0.86 0.00 88 1013.7
20260505055955 20 244 8.0 19.3 0.00 0.89 0.00 88 1013.8
20260505055945 20 276 8.0 19.3 0.00 0.89 0.00 88 1013.9
20260505055454 20 232 4.8 9.7 0.00 0.89 0.00 88 1013.9
20260505055436 20 274 4.8 9.7 0.00 0.89 0.00 88 1014.0
20260505054955 20 54 1.6 17.7 0.00 0.94 0.00 88 1014.1
20260505054926 20 204 4.8 19.3 0.00 0.94 0.00 88 1014.0
20260505054454 20 249 6.4 19.3 0.00 0.97 0.00 88 1014.0
20260505054416 20 239 4.8 16.1 0.00 0.97 0.00 88 1014.0
20260505053954 20 276 6.4 11.3 0.00 0.97 0.00 88 1014.0
20260505053906 20 239 3.2 11.3 0.00 0.97 0.00 88 1014.0
20260505053454 20 1 0.0 3.2 0.00 1.02 0.00 88 1014.2
20260505053356 20 309 0.0 8.0 0.00 1.02 0.00 88 1014.2
20260505052955 20 253 4.8 11.3 0.00 1.04 0.00 87 1014.4
20260505052454 20 226 6.4 16.1 0.00 1.07 0.00 87 1014.4
20260505051954 20 216 6.4 19.3 0.00 1.07 0.00 87 1014.6
20260505051455 20 214 1.6 11.3 0.00 1.07 0.00 87 1014.5
20260505051315 20 286 4.8 11.3 0.00 1.07 0.00 87 1014.5
20260505050954 20 225 3.2 11.3 0.00 1.07 0.00 87 1014.6
20260505050454 20 35 0.0 22.5 0.00 1.09 0.00 87 1014.6
20260505050256 20 58 9.7 22.5 0.00 1.12 0.00 87 1014.6
20260505041625 20 267 0.0 6.4 0.00 1.19 0.00 88 1015.2
20260505041454 20 240 0.0 8.0 0.00 1.19 0.00 87 1015.2
20260505041115 20 300 1.6 8.0 0.00 1.19 0.00 88 1015.1
20260505040954 20 282 3.2 8.0 0.00 1.19 0.00 88 1015.2
20260505040605 20 305 1.6 17.7 0.00 1.19 0.00 88 1015.2
20260505040454 20 301 6.4 20.9 0.00 1.22 0.00 88 1015.2
20260505035954 20 237 12.9 20.9 0.00 1.22 0.00 87 1015.3
20260505035546 20 183 4.8 14.5 0.00 1.22 0.00 88 1015.3
20260505035453 20 255 3.2 14.5 0.00 1.22 0.00 87 1015.3
20260505035035 20 65 1.6 8.0 0.00 1.22 0.00 88 1015.3
20260505034954 20 35 0.0 3.2 0.00 1.22 0.00 88 1015.3
20260505034524 20 301 0.0 16.1 0.00 1.22 0.00 88 1015.5
20260505034453 20 15 0.0 16.1 0.00 1.22 0.00 88 1015.5
20260505034015 20 286 1.6 17.7 0.00 1.22 0.00 88 1015.6
20260505033953 20 300 1.6 17.7 0.00 1.22 0.00 88 1015.6
20260505033505 20 221 11.3 16.1 0.00 1.22 0.00 88 1015.7
20260505033454 20 228 9.7 16.1 0.00 1.22 0.00 88 1015.7
20260505032956 20 297 3.2 12.9 0.00 1.22 0.00 88 1015.7
20260505032953 20 292 3.2 12.9 0.00 1.22 0.00 88 1015.7
20260505032454 20 211 3.2 19.3 0.00 1.22 0.00 88 1015.6
20260505032445 20 242 1.6 19.3 0.00 1.22 0.00 88 1015.6
20260505031953 20 251 6.4 11.3 0.00 1.24 0.00 88 1015.7
20260505031934 20 248 4.8 11.3 0.00 1.24 0.00 88 1015.7
20260505031453 20 40 8.0 25.7 0.00 1.24 0.00 88 1015.7
20260505031425 20 56 14.5 25.7 0.00 1.24 0.00 88 1015.7
20260505030953 20 211 4.8 12.9 0.00 1.24 0.00 89 1015.7
20260505030914 20 360 1.6 8.0 0.00 1.24 0.00 89 1015.7
20260505030453 20 306 1.6 11.3 0.00 1.24 0.00 89 1015.8
20260505030405 20 345 1.6 11.3 0.00 1.24 0.00 89 1015.8
20260505025954 20 241 4.8 6.4 0.00 1.24 0.00 89 1015.8
20260505025855 20 241 1.6 4.8 0.00 1.24 0.00 89 1015.8
20260505025453 20 285 0.0 8.0 0.00 1.27 0.00 89 1015.9
20260505025344 20 289 1.6 9.7 0.00 1.27 0.00 89 1016.0
20260505024953 19 221 6.4 11.3 0.00 1.27 0.00 89 1016.0
20260505024453 20 199 9.7 16.1 0.00 1.27 0.00 88 1016.0
20260505024324 20 207 9.7 16.1 0.00 1.27 0.00 89 1016.0
20260505023953 19 326 0.0 12.9 0.00 1.27 0.00 89 1015.9
20260505023815 19 346 1.6 14.5 0.00 1.27 0.00 89 1015.9
20260505023453 19 48 6.4 14.5 0.00 1.27 0.00 88 1016.0
20260505023304 19 180 3.2 27.4 0.00 1.27 0.00 88 1016.0
20260505022953 19 180 8.0 27.4 0.00 1.27 0.00 89 1016.0
20260505022755 19 342 1.6 11.3 0.00 1.27 0.00 89 1016.0
20260505022453 19 302 1.6 20.9 0.00 1.27 0.00 88 1016.0
20260505022244 19 251 9.7 32.2 0.00 1.27 0.00 88 1015.9
20260505021953 19 60 11.3 32.2 0.00 1.30 0.00 88 1015.9
20260505021734 19 250 4.8 11.3 0.00 1.30 0.00 88 1015.9
20260505021454 19 191 3.2 9.7 0.00 1.30 0.00 88 1015.9
20260505021224 19 275 1.6 9.7 0.00 1.30 0.00 89 1015.9
20260505020954 19 212 4.8 12.9 0.00 1.30 0.00 89 1015.9
20260505020714 19 231 8.0 17.7 0.00 1.30 0.00 88 1015.9
20260505020453 19 292 4.8 17.7 0.00 1.30 0.00 88 1015.9
20260505020205 19 239 1.6 6.4 0.00 1.30 0.00 89 1015.9
20260505015952 19 283 3.2 9.7 0.00 1.30 0.00 88 1016.0
20260505015654 19 138 1.6 14.5 0.00 1.30 0.00 88 1016.0
20260505015453 19 193 4.8 24.1 0.00 1.30 0.00 88 1016.0
20260505015144 19 244 4.8 24.1 0.00 1.30 0.00 88 1015.9
20260505014953 19 61 6.4 17.7 0.00 1.30 0.00 88 1016.1
20260505014452 19 310 8.0 14.5 0.00 1.30 0.00 88 1016.0
20260505014124 19 214 6.4 12.9 0.00 1.30 0.00 88 1016.0
20260505013953 19 197 4.8 12.9 0.00 1.30 0.00 88 1016.0
20260505013614 18 253 3.2 16.1 0.00 1.30 0.00 88 1016.0
20260505013453 18 287 9.7 16.1 0.00 1.30 0.00 88 1016.0
20260505013104 19 288 3.2 12.9 0.00 1.30 0.00 88 1016.0
20260505012952 19 347 0.0 12.9 0.00 1.30 0.00 88 1016.0
20260505012452 18 236 4.8 14.5 0.00 1.30 0.00 88 1016.0
20260505011953 18 229 3.2 11.3 0.00 1.30 0.00 88 1016.0
20260505011533 18 44 4.8 14.5 0.00 1.30 0.00 88 1015.9
20260505011452 18 49 6.4 14.5 0.00 1.30 0.00 88 1015.9
20260505011023 19 2 0.0 8.0 0.00 1.30 0.00 88 1016.0
20260505010952 19 318 0.0 8.0 0.00 1.30 0.00 88 1016.0
20260505010514 18 228 6.4 12.9 0.00 1.30 0.00 87 1016.0
20260505010452 18 248 3.2 12.9 0.00 1.30 0.00 87 1016.0
20260505005953 18 314 4.8 27.4 0.00 1.30 0.00 87 1015.9
20260505005454 19 333 4.8 9.7 0.00 1.30 0.00 87 1015.9
20260505005452 19 334 4.8 9.7 0.00 1.30 0.00 87 1015.9
20260505004952 19 252 4.8 11.3 0.00 1.30 0.00 87 1015.8
20260505004944 19 288 4.8 11.3 0.00 1.30 0.00 87 1015.8
20260505004452 19 287 4.8 11.3 0.00 1.30 0.00 87 1015.7
20260505004434 19 290 4.8 11.3 0.00 1.30 0.00 87 1015.7
20260505003953 19 234 6.4 9.7 0.00 1.30 0.00 87 1015.7
20260505003924 19 233 8.0 9.7 0.00 1.30 0.00 87 1015.7
20260505003452 19 271 3.2 8.0 0.00 1.30 0.00 87 1015.7
20260505003413 19 304 3.2 9.7 0.00 1.30 0.00 87 1015.7
20260505002952 19 334 3.2 14.5 0.00 1.30 0.00 87 1015.6
20260505002452 19 246 3.2 8.0 0.00 1.30 0.00 87 1015.5
20260505002354 19 250 4.8 8.0 0.00 1.30 0.00 87 1015.6
20260505001951 19 273 3.2 9.7 0.00 1.30 0.00 87 1015.6
20260505001843 20 225 3.2 11.3 0.00 1.30 0.00 88 1015.6
20260505001452 19 185 6.4 11.3 0.00 1.30 0.00 87 1015.5
20260505001333 19 238 4.8 9.7 0.00 1.30 0.00 87 1015.5
20260505000952 19 41 3.2 22.5 0.00 1.30 0.00 87 1015.4
20260505000823 19 230 4.8 25.7 0.00 1.30 0.00 87 1015.4
20260505000452 19 54 14.5 25.7 0.00 1.30 0.00 87 1015.4
20260505000314 19 236 6.4 14.5 0.00 1.30 0.00 87 1015.3
20260504235952 19 26 1.6 14.5 0.00 1.30 0.00 87 1015.4
20260504235803 19 262 3.2 14.5 0.00 1.30 0.00 88 1015.3
20260504235452 19 226 4.8 8.0 0.00 1.30 0.00 88 1015.3
20260504235253 19 266 1.6 19.3 0.00 1.30 0.00 88 1015.2
20260504234952 19 275 4.8 30.6 0.00 1.30 0.00 88 1015.2
20260504234743 19 51 6.4 30.6 0.00 1.30 0.00 87 1015.3
20260504234452 19 10 9.7 22.5 0.00 1.30 0.00 88 1015.2
20260504234233 19 293 6.4 17.7 0.00 1.30 0.00 88 1015.1
20260504233951 19 236 6.4 19.3 0.00 1.30 0.00 88 1015.0
20260504233723 19 85 6.4 19.3 0.00 1.30 0.00 88 1015.0
20260504233452 20 75 8.0 14.5 0.00 1.30 0.00 88 1015.0
20260504233213 19 262 3.2 20.9 0.00 1.30 0.00 88 1015.0
20260504232952 19 285 9.7 41.8 0.00 1.30 0.00 88 1015.0
20260504232703 19 144 17.7 41.8 0.00 1.30 0.00 88 1015.0
20260504232451 20 313 6.4 20.9 0.00 1.30 0.00 88 1014.9
20260504232153 20 320 9.7 35.4 0.00 1.30 0.00 88 1014.9
20260504231951 20 237 14.5 35.4 0.00 1.30 0.00 88 1014.9
20260504231452 20 264 12.9 20.9 0.00 1.30 0.00 88 1015.0
20260504231132 20 294 1.6 16.1 0.00 1.30 0.00 88 1015.0
20260504230951 20 343 9.7 16.1 0.00 1.30 0.00 88 1015.1
20260504230623 20 190 3.2 11.3 0.00 1.30 0.00 88 1015.0
20260504230451 20 30 3.2 11.3 0.00 1.30 0.00 88 1015.0
20260504230113 20 29 0.0 19.3 0.00 1.30 0.00 88 1015.0
20260504225952 20 257 8.0 19.3 0.00 1.30 0.00 88 1014.9
20260504225603 20 295 6.4 12.9 0.00 1.30 0.00 88 1015.0
20260504225451 20 244 3.2 12.9 0.00 1.30 0.00 88 1015.0
20260504225053 20 313 1.6 9.7 0.00 1.30 0.00 88 1015.0
20260504224952 20 238 6.4 9.7 0.00 1.30 0.00 88 1015.0
20260504224543 20 335 3.2 14.5 0.00 1.30 0.00 87 1015.0
20260504224452 20 256 4.8 14.5 0.00 1.30 0.00 87 1014.9
20260504224032 20 356 6.4 14.5 0.00 1.30 0.00 87 1014.9
20260504223951 20 310 8.0 14.5 0.00 1.30 0.00 87 1014.9
20260504223522 20 13 4.8 14.5 0.00 1.30 0.00 87 1014.8
20260504223451 20 9 0.0 8.0 0.00 1.30 0.00 87 1014.9
20260504223013 20 246 8.0 27.4 0.00 1.30 0.00 87 1014.8
20260504222951 20 275 14.5 27.4 0.00 1.30 0.00 87 1014.8
20260504222502 20 2 4.8 11.3 0.00 1.30 0.00 87 1014.7
20260504222451 20 263 3.2 12.9 0.00 1.30 0.00 87 1014.7
20260504221953 20 271 4.8 12.9 0.00 1.30 0.00 86 1014.7
20260504221951 20 258 4.8 12.9 0.00 1.30 0.00 86 1014.7
20260504221451 20 278 6.4 12.9 0.00 1.30 0.00 86 1014.7
20260504221443 20 266 6.4 12.9 0.00 1.30 0.00 86 1014.8
20260504220951 20 292 1.6 11.3 0.00 1.30 0.00 86 1014.8
20260504220932 20 324 3.2 14.5 0.00 1.30 0.00 86 1014.8
20260504220451 20 232 9.7 24.1 0.00 1.30 0.00 85 1014.8
20260504220422 20 224 4.8 24.1 0.00 1.30 0.00 85 1014.7
20260504215951 20 359 3.2 20.9 0.00 1.30 0.00 84 1014.7
20260504215913 20 53 3.2 20.9 0.00 1.30 0.00 84 1014.8
20260504215451 20 275 3.2 11.3 0.00 1.30 0.00 84 1014.7
20260504215402 20 262 3.2 11.3 0.00 1.30 0.00 84 1014.8
20260504214951 20 255 3.2 12.9 0.00 1.30 0.00 84 1014.8
20260504214852 20 257 4.8 12.9 0.00 1.30 0.00 84 1014.8
20260504214451 20 33 4.8 17.7 0.00 1.30 0.00 84 1014.5
20260504214342 20 238 3.2 17.7 0.00 1.30 0.00 84 1014.6
20260504213951 20 325 4.8 29.0 0.00 1.30 0.00 84 1014.4
20260504213832 20 214 9.7 29.0 0.00 1.30 0.00 84 1014.4
20260504213451 20 294 9.7 27.4 0.00 1.30 0.00 84 1014.3
20260504213323 20 249 12.9 27.4 0.00 1.30 0.00 84 1014.2
20260504212950 20 360 1.6 8.0 0.00 1.30 0.00 84 1014.2
20260504212812 20 343 6.4 16.1 0.00 1.30 0.00 84 1014.2
20260504212451 20 352 4.8 16.1 0.00 1.30 0.00 83 1014.2
20260504212304 20 243 4.8 11.3 0.00 1.30 0.00 83 1014.2
20260504211950 20 291 4.8 14.5 0.00 1.30 0.00 83 1014.3
20260504211752 21 296 3.2 20.9 0.00 1.30 0.00 83 1014.3
20260504211451 21 301 4.8 20.9 0.00 1.30 0.00 83 1014.3
20260504211242 21 240 6.4 16.1 0.00 1.30 0.00 83 1014.4
20260504210950 21 236 8.0 14.5 0.00 1.30 0.00 83 1014.3
20260504210732 21 203 6.4 22.5 0.00 1.30 0.00 83 1014.3
20260504210450 21 352 3.2 24.1 0.00 1.30 0.00 83 1014.2
20260504210222 21 270 8.0 16.1 0.00 1.30 0.00 83 1014.2
20260504205951 21 263 6.4 14.5 0.00 1.30 0.00 83 1014.2
20260504205710 21 294 3.2 14.5 0.00 1.30 0.00 83 1014.3
20260504205450 21 256 4.8 14.5 0.00 1.30 0.00 83 1014.3
20260504205202 21 298 4.8 16.1 0.00 1.30 0.00 83 1014.4
20260504204951 21 272 9.7 16.1 0.00 1.30 0.00 83 1014.4
20260504204652 21 267 0.0 16.1 0.00 1.30 0.00 83 1014.4
20260504204449 21 336 6.4 16.1 0.00 1.30 0.00 83 1014.4
20260504204142 21 74 3.2 14.5 0.00 1.30 0.00 82 1014.3
20260504203950 21 232 1.6 25.7 0.00 1.30 0.00 83 1014.3
20260504203632 21 298 6.4 25.7 0.00 1.30 0.00 83 1014.2
20260504203451 21 232 14.5 24.1 0.00 1.30 0.00 83 1014.2
20260504203121 21 26 6.4 20.9 0.00 1.30 0.00 83 1014.2
20260504202950 21 296 3.2 20.9 0.00 1.30 0.00 83 1014.1
20260504202612 21 30 4.8 12.9 0.00 1.30 0.00 83 1014.1
20260504202451 21 234 3.2 16.1 0.00 1.30 0.00 83 1014.2
20260504202101 21 250 8.0 29.0 0.00 1.30 0.00 83 1014.2
20260504201950 21 10 8.0 29.0 0.00 1.30 0.00 83 1014.1
20260504201552 21 340 6.4 19.3 0.00 1.30 0.00 83 1014.2
20260504201450 21 214 9.7 19.3 0.00 1.30 0.00 83 1014.1
20260504201041 21 171 3.2 19.3 0.00 1.30 0.00 83 1014.2
20260504200950 21 271 6.4 19.3 0.00 1.30 0.00 83 1014.2
20260504200531 21 299 4.8 16.1 0.00 1.30 0.00 83 1014.1
20260504200450 21 267 8.0 16.1 0.00 1.30 0.00 83 1014.2
20260504200022 21 355 3.2 8.0 0.00 1.30 0.00 83 1014.1
20260504195950 21 279 1.6 6.4 0.00 1.30 0.00 83 1014.1
20260504195512 21 152 3.2 25.7 0.00 1.30 0.00 83 1014.2
20260504195450 21 317 6.4 25.7 0.00 1.30 0.00 83 1014.2
20260504195001 21 331 3.2 9.7 0.00 1.30 0.00 84 1014.2
20260504194950 21 360 1.6 9.7 0.00 1.30 0.00 84 1014.2
20260504194452 21 63 1.6 19.3 0.00 1.30 0.00 83 1014.1
20260504194449 21 109 1.6 19.3 0.00 1.30 0.00 83 1014.2
20260504193950 21 335 12.9 33.8 0.00 1.30 0.00 84 1014.0
20260504193941 21 18 16.1 33.8 0.00 1.30 0.00 84 1014.0
20260504193450 21 269 11.3 22.5 0.00 1.30 0.00 84 1014.0
20260504193431 21 272 16.1 22.5 0.00 1.30 0.00 84 1014.0
20260504192921 21 232 6.4 16.1 0.00 1.30 0.00 84 1014.0
20260504192450 21 283 9.7 16.1 0.00 1.30 0.00 84 1014.0
20260504192411 21 277 6.4 16.1 0.00 1.30 0.00 84 1013.9
20260504191950 21 294 8.0 20.9 0.00 1.30 0.00 84 1014.0
20260504191901 21 254 8.0 25.7 0.00 1.30 0.00 84 1014.0
20260504191449 21 226 9.7 25.7 0.00 1.30 0.00 84 1014.0
20260504191351 21 255 6.4 16.1 0.00 1.30 0.00 84 1014.0
20260504190950 21 24 0.0 14.5 0.00 1.30 0.00 84 1014.1
20260504190841 21 53 0.0 14.5 0.00 1.30 0.00 84 1014.1
20260504190450 21 20 1.6 16.1 0.00 1.30 0.00 85 1014.2
20260504190331 21 37 6.4 25.7 0.00 1.30 0.00 85 1014.1
20260504185949 21 25 6.4 25.7 0.00 1.30 0.00 85 1014.2
20260504185820 21 67 1.6 12.9 0.00 1.30 0.00 85 1014.2
20260504185449 21 334 4.8 12.9 0.00 1.30 0.00 85 1014.2
20260504185311 21 336 1.6 11.3 0.00 1.30 0.00 85 1014.2
20260504184950 21 34 4.8 11.3 0.00 1.30 0.00 85 1014.2
20260504184800 21 47 3.2 9.7 0.00 1.30 0.00 85 1014.3
20260504184449 21 205 3.2 11.3 0.00 1.30 0.00 85 1014.4
20260504184251 21 313 3.2 11.3 0.00 1.30 0.00 84 1014.4
20260504183949 21 245 1.6 12.9 0.00 1.30 0.00 84 1014.4
20260504183741 21 359 0.0 12.9 0.00 1.30 0.00 84 1014.3
20260504183449 21 351 4.8 9.7 0.00 1.30 0.00 84 1014.3
20260504183230 21 110 4.8 12.9 0.00 1.30 0.00 84 1014.4
20260504182949 21 330 6.4 12.9 0.00 1.30 0.00 84 1014.4
20260504182721 21 273 3.2 6.4 0.00 1.30 0.00 84 1014.3
20260504182450 21 62 0.0 19.3 0.00 1.30 0.00 84 1014.4
20260504182210 21 347 9.7 19.3 0.00 1.30 0.00 83 1014.5
20260504181949 21 46 3.2 11.3 0.00 1.30 0.00 83 1014.7
20260504181700 21 360 1.6 19.3 0.00 1.30 0.00 83 1014.9
20260504181449 21 27 4.8 22.5 0.00 1.30 0.00 83 1014.8
20260504181151 21 21 6.4 22.5 0.00 1.30 0.00 83 1014.9
20260504180949 21 25 1.6 14.5 0.00 1.30 0.00 83 1014.9
20260504180641 21 359 4.8 20.9 0.00 1.30 0.00 83 1015.0
20260504180449 21 201 12.9 20.9 0.00 1.30 0.00 83 1015.0
20260504180130 21 138 1.6 9.7 0.00 1.30 0.00 83 1014.9
20260504175949 21 343 3.2 9.7 0.00 1.30 0.00 83 1015.0
20260504175621 21 181 4.8 9.7 0.00 1.30 0.00 83 1015.1
20260504175449 21 273 3.2 8.0 0.00 1.30 0.00 83 1015.1
20260504175110 21 308 1.6 19.3 0.00 1.30 0.00 83 1015.1
20260504174949 21 268 1.6 22.5 0.00 1.30 0.00 83 1015.2
20260504174600 21 270 6.4 22.5 0.00 1.30 0.00 83 1015.2
20260504174449 21 225 4.8 20.9 0.00 1.30 0.00 83 1015.1
20260504174051 22 27 3.2 16.1 0.00 1.30 0.00 84 1015.1
20260504173949 21 243 0.0 16.1 0.00 1.30 0.00 83 1015.2
20260504173540 21 330 8.0 19.3 0.00 1.30 0.00 83 1015.1
20260504173449 21 10 4.8 19.3 0.00 1.30 0.00 84 1015.1
20260504173030 22 345 3.2 12.9 0.00 1.30 0.00 83 1015.2
20260504172949 22 356 3.2 12.9 0.00 1.30 0.00 83 1015.2
20260504172520 22 343 1.6 9.7 0.00 1.30 0.00 83 1015.3
20260504172448 22 13 0.0 9.7 0.00 1.30 0.00 83 1015.3
20260504172010 22 95 6.4 11.3 0.00 1.30 0.00 83 1015.3
20260504171949 22 30 6.4 11.3 0.00 1.30 0.00 83 1015.3
20260504171500 22 48 3.2 22.5 0.00 1.30 0.00 83 1015.3
20260504171448 22 37 4.8 22.5 0.00 1.30 0.00 83 1015.3
20260504170951 22 34 6.4 22.5 0.00 1.30 0.00 82 1015.4
20260504170949 22 360 6.4 22.5 0.00 1.30 0.00 82 1015.4
20260504170448 22 260 3.2 11.3 0.00 1.30 0.00 82 1015.4
20260504170439 22 312 1.6 11.3 0.00 1.30 0.00 82 1015.4
20260504160240 22 313 4.8 12.9 0.00 1.30 0.00 84 1015.7
20260504151059 21 217 4.8 27.4 0.00 1.30 0.00 85 1016.4
20260504150947 21 360 4.8 27.4 0.00 1.30 0.00 85 1016.4
20260504150549 21 252 14.5 20.9 0.00 1.30 0.00 85 1016.3
20260504150448 21 225 1.6 14.5 0.00 1.30 0.00 85 1016.4
20260504140948 22 351 1.6 29.0 0.00 1.30 0.00 86 1016.1
20260504140858 21 274 16.1 29.0 0.00 1.30 0.00 86 1016.1
20260504140447 22 337 6.4 20.9 0.00 1.30 0.00 86 1016.1
20260504140348 22 2 11.3 27.4 0.00 1.30 0.00 86 1016.1
20260504130658 22 231 6.4 19.3 0.00 1.30 0.00 85 1015.7
20260504130447 22 263 6.4 19.3 0.00 1.30 0.00 85 1015.7
20260504130148 22 252 3.2 19.3 0.00 1.30 0.00 85 1015.6
20260504110445 22 339 8.0 16.1 0.00 1.30 0.00 85 1015.0
20260504110257 22 119 3.2 17.7 0.00 1.30 0.00 85 1015.1
20260504100607 22 219 1.6 20.9 0.00 1.30 0.00 85 1014.5
20260504100446 22 317 1.6 20.9 0.00 1.30 0.00 85 1014.4